Nueva Ocotepeque, Honduras

10:01 PM CST on March 28, 2017 (GMT -0600)
Coronel Enrique Soto Cano Air Base

Weather History for MHSC - October, 2012

Change the Weather History Date:

Monday, October 22, 2012

  Actual Average Record
Temperature  
Mean Temperature 74 °F -  
Max Temperature 78 °F - - ()
Min Temperature 69 °F - - ()
Cooling Degree Days 8    
Growing Degree Days 24 (Base 50)    
Moisture  
Dew Point 70 °F    
Average Humidity 89    
Maximum Humidity 100    
Minimum Humidity 63    
Precipitation  
Precipitation 0.20 in - - ()
Sea Level Pressure  
Sea Level Pressure 29.79 in    
Wind  
Wind Speed 8 mph ()    
Max Wind Speed 20 mph    
Max Gust Speed 26 mph    
Visibility 6.1 miles    
Events Rain    
T = Trace of Precipitation, MM = Missing Value Source: Averaged Metar Reports

Daily Weather History Graph

Daily Weather History Graph

Search for Another Location

Airport or City:

Trip Planner

Search our weather history database for the weather conditions in past years. The results will help you decide how hot, cold, wet, or windy it might be!

Date:

Astronomy

Oct. 22, 2012 Rise Set
Actual Time 5:49 AM CST 5:32 PM CST
Civil Twilight 5:27 AM CST 5:54 PM CST
Nautical Twilight 5:02 AM CST 6:19 PM CST
Astronomical Twilight 4:37 AM CST 6:44 PM CST
Moon 12:40 PM CST (10/22) No Moon Set
Length of Visible Light 12h 26m
Length of Day
11h 43m
First Quarter, 57% of the Moon is Illuminated
Oct 22
First Quarter
Oct 29
Full
Nov 6
Last Quarter
Nov 13
New
Nov 20
First Quarter

Hourly Weather History & Observations

Time (CST) Temp. Heat Index Dew Point Humidity Pressure Visibility Wind Dir Wind Speed Gust Speed Precip Events Conditions
12:55 AM 71.8 °F - 71.4 °F 99% 29.78 in 6.2 mi NNW 8.1 mph - N/A   Overcast
1:55 AM 71.1 °F - 70.9 °F 99% 29.77 in 6.2 mi North 4.6 mph - N/A   Mostly Cloudy
2:24 AM 71.6 °F - 71.6 °F 100% 29.77 in 6.2 mi NNW 6.9 mph - N/A   Light Drizzle
2:34 AM 71.6 °F - 69.8 °F 94% 29.78 in 6.2 mi NNW 5.8 mph - N/A   Overcast
2:55 AM 70.5 °F - 70.2 °F 99% 29.78 in 6.2 mi NNW 5.8 mph - 0.00 in   Mostly Cloudy
3:02 AM 69.8 °F - 69.8 °F 100% 29.78 in 6.2 mi NW 4.6 mph - N/A   Mostly Cloudy
3:43 AM 69.8 °F - 69.8 °F 100% 29.80 in 6.2 mi North 3.5 mph - N/A   Overcast
3:55 AM 70.3 °F - 70.0 °F 99% 29.80 in 6.2 mi NNE 3.5 mph - N/A   Overcast
4:55 AM 70.3 °F - 70.0 °F 99% 29.80 in 6.2 mi NNE 4.6 mph - N/A   Partly Cloudy
5:20 AM 69.8 °F - 69.8 °F 100% 29.82 in 6.2 mi Calm Calm - N/A   Mostly Cloudy
5:35 AM 69.8 °F - 69.8 °F 100% 29.83 in 6.2 mi North 4.6 mph - N/A   Mostly Cloudy
5:55 AM 70.0 °F - 69.6 °F 99% 29.83 in 6.2 mi NNE 4.6 mph - N/A   Mostly Cloudy
6:00 AM 69 °F - - %  in 6 mi Calm Calm - -   Haze
6:55 AM 70.9 °F - 70.5 °F 99% 29.85 in 6.2 mi NNE 5.8 mph - N/A   Partly Cloudy
7:55 AM 73.6 °F - 71.6 °F 93% 29.86 in 6.2 mi North 8.1 mph - N/A   Overcast
8:55 AM 76.8 °F - 71.1 °F 82% 29.86 in 6.2 mi North 10.4 mph - N/A   Mostly Cloudy
9:00 AM 72 °F - - %  in 6 mi Calm Calm - - Rain Light Rain
9:55 AM 78.1 °F - 70.3 °F 77% 29.86 in 6.2 mi North 15.0 mph - N/A   Scattered Clouds
10:55 AM 81.0 °F 84.9 °F 71.1 °F 72% 29.83 in 6.2 mi NNW 10.4 mph - N/A   Partly Cloudy
11:55 AM 81.5 °F 84.9 °F 69.6 °F 67% 29.79 in 6.2 mi North 8.1 mph - N/A   Overcast
12:00 PM 73 °F - - %  in 6 mi North 2.3 mph - -   Partly Cloudy
12:55 PM 83.5 °F 87.7 °F 70.2 °F 64% 29.75 in 6.2 mi North 13.8 mph - N/A   Mostly Cloudy
1:55 PM 84.7 °F 89.7 °F 70.9 °F 63% 29.71 in 6.2 mi NNW 13.8 mph - N/A   Clear
2:55 PM 82.8 °F 86.9 °F 70.5 °F 66% 29.68 in 6.2 mi North 15.0 mph 20.7 mph N/A   Partly Cloudy
3:00 PM 76 °F - - %  in 6 mi North 6.9 mph - -   Haze
3:55 PM 83.3 °F 87.9 °F 70.9 °F 66% 29.68 in 6.2 mi North 16.1 mph - N/A   Scattered Clouds
4:55 PM 77.7 °F - 69.4 °F 76% 29.72 in 6.2 mi North 18.4 mph 25.3 mph N/A   Overcast
5:06 PM 77.0 °F - 69.8 °F 78% 29.73 in 6.2 mi North 19.6 mph 26.5 mph N/A Rain Light Rain
5:17 PM 75.2 °F - 69.8 °F 83% 29.74 in 6.2 mi North 17.3 mph 26.5 mph N/A   Mostly Cloudy
5:55 PM 75.6 °F - 69.1 °F 80% 29.76 in 6.2 mi North 16.1 mph 21.9 mph 0.00 in   Mostly Cloudy
6:00 PM 74 °F - - %  in 6 mi North 4.6 mph - -   Haze
6:35 PM 75.2 °F - 69.8 °F 83% 29.78 in 6.2 mi North 15.0 mph - N/A Rain Light Rain
6:42 PM 73.4 °F - 69.8 °F 88% 29.79 in 6.2 mi North 13.8 mph - N/A Rain Heavy Rain
6:55 PM 72.7 °F - 70.3 °F 92% 29.80 in 5.6 mi North 16.1 mph - 0.03 in Rain Rain
6:59 PM 71.6 °F - 69.8 °F 94% 29.80 in 6.2 mi North 15.0 mph - N/A   Light Drizzle
7:04 PM 71.6 °F - 69.8 °F 94% 29.81 in 6.2 mi NNE 15.0 mph - N/A   Overcast
7:13 PM 71.6 °F - 69.8 °F 94% 29.81 in 6.2 mi NNE 15.0 mph 20.7 mph N/A   Light Drizzle
7:55 PM 71.4 °F - 70.5 °F 97% 29.82 in 5.6 mi North 10.4 mph - 0.03 in Rain Light Rain
8:05 PM 71.6 °F - 69.8 °F 94% 29.82 in 6.2 mi North 12.7 mph - N/A   Mostly Cloudy
8:55 PM 71.4 °F - 70.5 °F 97% 29.83 in 6.2 mi North 10.4 mph - 0.02 in   Overcast
9:55 PM 71.4 °F - 70.2 °F 96% 29.83 in 6.2 mi North 8.1 mph - N/A   Overcast
10:55 PM 71.8 °F - 69.6 °F 93% 29.81 in 6.2 mi NNE 12.7 mph - N/A   Overcast
11:55 PM 71.1 °F - 69.4 °F 95% 29.80 in 6.2 mi NNE 8.1 mph - N/A   Overcast